Regional Weather Roundup
Issued by NWS Charleston, WV

Home | Current Version | Previous Version | Graphics & Text | Print | Product List | Glossary On
Versions: 1 2 3 4 5 6 7 8 9 10 11 12 13 14 15 16 17 18 19 20 21 22 23 24 25 26 27
000
ASUS41 KRLX 250610
RWRRLX
West Virginia Regional Weather Roundup
National Weather Service Charleston WV
200 AM EDT WED MAY 25 2016

Note: "fair" indicates few or no clouds below 12,000 feet with no
significant weather and/or obstructions to visibility.

WVZ003-250700-
Northern Panhandle of West Virginia

CITY           SKY/WX    TMP DP  RH WIND       PRES   REMARKS
WHEELING         N/A     63  48  58 S3        30.12S
$$

WVZ009-250700-
Northwest West Virginia

CITY           SKY/WX    TMP DP  RH WIND       PRES   REMARKS
PARKERSBURG      N/A     55  52  89 E3        30.15R
$$

WVZ006-250700-
Western West Virginia

CITY           SKY/WX    TMP DP  RH WIND       PRES   REMARKS
HUNTINGTON       N/A     58  53  84 CALM      30.12S
$$

WVZ015-250700-
West Central West Virginia

CITY           SKY/WX    TMP DP  RH WIND       PRES   REMARKS
CHARLESTON       N/A     56  54  93 CALM      30.14S
$$

WVZ022-031-250700-
North Central West Virginia

CITY           SKY/WX    TMP DP  RH WIND       PRES   REMARKS
CLARKSBURG       N/A     56  52  86 CALM      30.14S
MORGANTOWN       N/A     58  51  78 CALM      30.15S
$$

WVZ025-035-042-045-250700-
Southern West Virginia

CITY           SKY/WX    TMP DP  RH WIND       PRES   REMARKS
BECKLEY          N/A     54  47  77 CALM      30.20F
LOGAN            N/A     59  54  82 CALM      30.17S
BLUEFIELD        N/A     58  48  69 SW5       30.23S
LEWISBURG        N/A     50  47  90 CALM      30.21R
$$

WVZ047-250700-
Northern Mountains of West Virginia

CITY           SKY/WX    TMP DP  RH WIND       PRES   REMARKS
ELKINS           N/A     48  46  93 CALM      30.21R FOG
$$

WVZ052-250700-
Eastern Panhandle of West Virginia

CITY           SKY/WX    TMP DP  RH WIND       PRES   REMARKS
MARTINSBURG      N/A     60  50  69 SW6       30.09R
PETERSBURG       N/A     53  53  98 CALM      30.17R FOG
$$




USA.gov is the U.S. government's official web portal to all federal, state and local government web resources and services.